| time (UTC) | temp F | wind direction | speed knots | gust knots | rain 1hr in | rain 24hr in | rain mn in | humidity % | barometer mb |
| 20260506134510 | 75 | 157 | 0.0 | 0.0 | 0.00 | 0.00 | 0.00 | 84 | 1012.8 |
| 20260506133511 | 75 | 156 | 0.0 | 1.7 | 0.00 | 0.00 | 0.00 | 84 | 1013.1 |
| 20260506132510 | 74 | 135 | 0.0 | 0.0 | 0.00 | 0.00 | 0.00 | 84 | 1012.8 |
| 20260506131511 | 74 | 154 | 0.0 | 2.6 | 0.00 | 0.00 | 0.00 | 85 | 1012.9 |
| 20260506130511 | 74 | 202 | 0.0 | 0.0 | 0.00 | 0.00 | 0.00 | 85 | 1012.8 |
| 20260506125510 | 74 | 157 | 0.0 | 0.0 | 0.00 | 0.00 | 0.00 | 85 | 1012.7 |
| 20260506124511 | 74 | 97 | 0.0 | 0.0 | 0.00 | 0.00 | 0.00 | 85 | 1012.5 |
| 20260506123511 | 73 | 157 | 0.0 | 0.0 | 0.00 | 0.00 | 0.00 | 85 | 1012.6 |
| 20260506122511 | 74 | 157 | 0.0 | 0.0 | 0.00 | 0.00 | 0.00 | 85 | 1012.6 |
| 20260506120625 | 74 | 157 | 0.0 | 0.0 | 0.00 | 0.00 | 0.00 | 84 | 1012.7 |
| 20260506115610 | 74 | 157 | 0.0 | 0.0 | 0.00 | 0.00 | 0.00 | 84 | 1012.5 |
| 20260506114610 | 74 | 157 | 0.0 | 0.0 | 0.00 | 0.00 | 0.00 | 84 | 1012.4 |
| 20260506113708 | 74 | 157 | 0.0 | 0.0 | 0.00 | 0.00 | 0.00 | 84 | 1012.5 |
| 20260506112709 | 74 | 161 | 0.0 | 0.0 | 0.00 | 0.00 | 0.00 | 84 | 1012.5 |
| 20260506111710 | 74 | 135 | 0.0 | 0.0 | 0.00 | 0.00 | 0.00 | 84 | 1012.5 |
| 20260506110709 | 74 | 135 | 0.0 | 0.0 | 0.00 | 0.00 | 0.00 | 84 | 1012.4 |
| 20260506105730 | 74 | 135 | 0.0 | 0.0 | 0.00 | 0.00 | 0.00 | 84 | 1012.4 |
| 20260506104828 | 74 | 135 | 0.0 | 0.0 | 0.00 | 0.00 | 0.00 | 84 | 1012.2 |
| 20260506101930 | 74 | 162 | 0.9 | 3.5 | 0.00 | 0.00 | 0.00 | 84 | 1011.8 |
| 20260506100930 | 74 | 168 | 0.9 | 3.5 | 0.00 | 0.00 | 0.00 | 84 | 1011.8 |
| 20260506095931 | 74 | 168 | 2.6 | 4.3 | 0.00 | 0.00 | 0.00 | 84 | 1011.8 |
| 20260506095029 | 74 | 174 | 1.7 | 3.5 | 0.00 | 0.00 | 0.00 | 84 | 1011.6 |
| 20260506094031 | 74 | 159 | 0.9 | 2.6 | 0.00 | 0.00 | 0.00 | 84 | 1011.6 |
| 20260506093129 | 74 | 175 | 1.7 | 3.5 | 0.00 | 0.00 | 0.00 | 84 | 1011.4 |
| 20260506092131 | 74 | 162 | 1.7 | 4.3 | 0.00 | 0.00 | 0.00 | 84 | 1011.5 |
| 20260506091228 | 74 | 175 | 3.5 | 5.2 | 0.00 | 0.00 | 0.00 | 84 | 1011.3 |
| 20260506085328 | 74 | 165 | 2.6 | 3.5 | 0.00 | 0.00 | 0.00 | 84 | 1011.2 |
| 20260506084328 | 74 | 151 | 2.6 | 3.5 | 0.00 | 0.00 | 0.00 | 84 | 1011.2 |
| 20260506083330 | 74 | 168 | 3.5 | 6.1 | 0.00 | 0.00 | 0.00 | 84 | 1011.2 |
| 20260506081329 | 74 | 169 | 1.7 | 4.3 | 0.00 | 0.00 | 0.00 | 84 | 1011.3 |
| 20260506080330 | 74 | 172 | 1.7 | 3.5 | 0.00 | 0.00 | 0.00 | 84 | 1011.3 |
| 20260506073428 | 74 | 152 | 2.6 | 5.2 | 0.00 | 0.00 | 0.00 | 84 | 1011.7 |
| 20260506072428 | 75 | 159 | 0.9 | 3.5 | 0.00 | 0.00 | 0.00 | 84 | 1011.7 |
| 20260506071528 | 75 | 155 | 3.5 | 6.1 | 0.00 | 0.00 | 0.00 | 83 | 1011.9 |
| 20260506061545 | 75 | 177 | 3.5 | 7.0 | 0.00 | 0.00 | 0.00 | 83 | 1011.9 |
| 20260506060631 | 75 | 167 | 2.6 | 6.1 | 0.00 | 0.00 | 0.00 | 83 | 1011.8 |
| 20260506050830 | 75 | 143 | 1.7 | 2.6 | 0.00 | 0.00 | 0.00 | 82 | 1012.0 |
| 20260506045023 | 76 | 149 | 5.2 | 8.7 | 0.00 | 0.00 | 0.00 | 82 | 1011.9 |
| 20260506044025 | 76 | 149 | 3.5 | 7.8 | 0.00 | 0.00 | 0.00 | 82 | 1012.0 |
| 20260506043123 | 76 | 150 | 3.5 | 7.8 | 0.00 | 0.00 | 0.00 | 82 | 1012.0 |
| 20260506042124 | 76 | 155 | 3.5 | 7.0 | 0.00 | 0.00 | 0.00 | 82 | 1011.8 |
| 20260506041125 | 76 | 148 | 1.7 | 4.3 | 0.00 | 0.00 | 0.00 | 82 | 1011.8 |
| 20260506040125 | 76 | 146 | 1.7 | 4.3 | 0.00 | 0.00 | 0.00 | 82 | 1011.7 |
| 20260506035124 | 76 | 157 | 2.6 | 5.2 | 0.00 | 0.00 | 0.00 | 82 | 1011.4 |
| 20260506034224 | 76 | 149 | 2.6 | 6.1 | 0.00 | 0.00 | 0.00 | 82 | 1011.5 |
| 20260506032225 | 76 | 135 | 0.9 | 2.6 | 0.00 | 0.00 | 0.00 | 82 | 1011.2 |
| 20260506031224 | 76 | 159 | 1.7 | 2.6 | 0.00 | 0.00 | 0.00 | 82 | 1011.1 |
| 20260506030241 | 76 | 157 | 0.0 | 1.7 | 0.00 | 0.00 | 0.00 | 82 | 1010.8 |
| 20260506024224 | 76 | 136 | 0.9 | 3.5 | 0.00 | 0.00 | 0.00 | 81 | 1010.7 |
| 20260506023240 | 76 | 169 | 0.0 | 1.7 | 0.00 | 0.00 | 0.00 | 81 | 1010.6 |
| 20260506022225 | 76 | 149 | 1.7 | 4.3 | 0.00 | 0.00 | 0.00 | 81 | 1010.3 |
| 20260506020326 | 76 | 135 | 0.0 | 1.7 | 0.00 | 0.00 | 0.00 | 80 | 1010.0 |
| 20260506015424 | 76 | 157 | 0.0 | 0.9 | 0.00 | 0.00 | 0.00 | 80 | 1009.9 |
| 20260506014424 | 77 | 135 | 0.0 | 0.0 | 0.00 | 0.00 | 0.00 | 79 | 1009.8 |
| 20260506013523 | 77 | 135 | 0.0 | 0.0 | 0.00 | 0.00 | 0.00 | 79 | 1009.8 |
| 20260506012526 | 78 | 135 | 0.0 | 0.0 | 0.00 | 0.00 | 0.00 | 77 | 1009.7 |
| 20260506011526 | 79 | 135 | 0.0 | 0.0 | 0.00 | 0.00 | 0.00 | 77 | 1009.8 |
| 20260506010624 | 79 | 135 | 0.0 | 0.0 | 0.00 | 0.00 | 0.00 | 76 | 1009.8 |
| 20260506005625 | 80 | 135 | 0.0 | 0.0 | 0.00 | 0.00 | 0.00 | 76 | 1009.8 |
| 20260506004641 | 80 | 141 | 0.0 | 0.9 | 0.00 | 0.00 | 0.00 | 75 | 1009.8 |
| 20260506003725 | 81 | 158 | 0.9 | 1.7 | 0.00 | 0.00 | 0.00 | 74 | 1009.6 |
| 20260506002743 | 81 | 157 | 0.0 | 1.7 | 0.00 | 0.00 | 0.00 | 74 | 1009.6 |
| 20260506001824 | 81 | 154 | 0.0 | 1.7 | 0.00 | 0.00 | 0.00 | 73 | 1009.5 |
| 20260505234924 | 82 | 160 | 0.9 | 3.5 | 0.00 | 0.00 | 0.00 | 72 | 1009.1 |
| 20260505233925 | 82 | 137 | 0.0 | 2.6 | 0.00 | 0.00 | 0.00 | 72 | 1009.2 |
| 20260505232925 | 82 | 167 | 1.7 | 4.3 | 0.00 | 0.00 | 0.00 | 71 | 1009.2 |
| 20260505231925 | 82 | 147 | 2.6 | 6.1 | 0.00 | 0.00 | 0.00 | 70 | 1009.3 |
| 20260505230925 | 82 | 173 | 1.7 | 3.5 | 0.00 | 0.00 | 0.00 | 71 | 1009.3 |
| 20260505225922 | 82 | 160 | 3.5 | 6.1 | 0.00 | 0.00 | 0.00 | 71 | 1009.1 |
| 20260505225022 | 82 | 151 | 4.3 | 8.7 | 0.00 | 0.00 | 0.00 | 71 | 1009.1 |
| 20260505223025 | 82 | 178 | 2.6 | 6.1 | 0.00 | 0.00 | 0.00 | 69 | 1008.9 |
| 20260505222025 | 83 | 148 | 4.3 | 9.6 | 0.00 | 0.00 | 0.00 | 70 | 1009.1 |
| 20260505220124 | 83 | 153 | 3.5 | 5.2 | 0.00 | 0.00 | 0.00 | 69 | 1009.2 |
| 20260505215126 | 83 | 182 | 4.3 | 7.0 | 0.00 | 0.00 | 0.00 | 68 | 1009.3 |
| 20260505214124 | 83 | 165 | 5.2 | 8.7 | 0.00 | 0.00 | 0.00 | 68 | 1009.6 |
| 20260505213123 | 83 | 158 | 4.3 | 8.7 | 0.00 | 0.00 | 0.00 | 68 | 1009.6 |
| 20260505212223 | 84 | 154 | 5.2 | 9.6 | 0.00 | 0.00 | 0.00 | 67 | 1009.6 |
| 20260505211224 | 83 | 197 | 5.2 | 9.6 | 0.00 | 0.00 | 0.00 | 68 | 1009.7 |
| 20260505210324 | 83 | 156 | 3.5 | 7.8 | 0.00 | 0.00 | 0.00 | 68 | 1009.8 |
| 20260505205423 | 83 | 154 | 4.3 | 7.8 | 0.00 | 0.00 | 0.00 | 68 | 1010.1 |
| 20260505202523 | 82 | 140 | 5.2 | 7.8 | 0.00 | 0.00 | 0.00 | 69 | 1010.6 |
| 20260505201523 | 82 | 155 | 3.5 | 7.0 | 0.00 | 0.00 | 0.00 | 71 | 1010.8 |
| 20260505195524 | 82 | 142 | 3.5 | 7.0 | 0.00 | 0.00 | 0.00 | 71 | 1010.7 |
| 20260505194622 | 82 | 161 | 3.5 | 6.1 | 0.00 | 0.00 | 0.00 | 70 | 1011.0 |
| 20260505193626 | 82 | 185 | 3.5 | 6.1 | 0.00 | 0.00 | 0.00 | 70 | 1011.2 |
| 20260505192723 | 82 | 172 | 5.2 | 8.7 | 0.00 | 0.00 | 0.00 | 71 | 1010.9 |
| 20260505191726 | 81 | 149 | 4.3 | 7.8 | 0.00 | 0.00 | 0.00 | 71 | 1011.2 |
| 20260505190823 | 81 | 149 | 4.3 | 7.0 | 0.00 | 0.00 | 0.00 | 72 | 1011.1 |
| 20260505185824 | 80 | 164 | 4.3 | 7.8 | 0.00 | 0.00 | 0.00 | 73 | 1011.3 |
| 20260505184822 | 80 | 202 | 0.9 | 5.2 | 0.00 | 0.00 | 0.00 | 73 | 1011.5 |
| 20260505182922 | 79 | 215 | 1.7 | 4.3 | 0.00 | 0.00 | 0.00 | 75 | 1011.6 |
| 20260505181925 | 78 | 197 | 3.5 | 6.1 | 0.00 | 0.00 | 0.00 | 75 | 1011.8 |
| 20260505181023 | 78 | 168 | 2.6 | 5.2 | 0.00 | 0.00 | 0.00 | 76 | 1011.8 |
| 20260505180023 | 77 | 185 | 0.9 | 4.3 | 0.00 | 0.00 | 0.00 | 77 | 1012.0 |
| 20260505175123 | 77 | 181 | 2.6 | 6.1 | 0.00 | 0.00 | 0.00 | 78 | 1012.1 |
| 20260505174124 | 76 | 194 | 3.5 | 9.6 | 0.00 | 0.00 | 0.00 | 79 | 1012.2 |
| 20260505173125 | 75 | 198 | 4.3 | 7.8 | 0.00 | 0.00 | 0.00 | 80 | 1012.4 |
| 20260505172124 | 74 | 189 | 0.9 | 4.3 | 0.00 | 0.00 | 0.00 | 80 | 1012.6 |
| 20260505171123 | 74 | 205 | 2.6 | 7.0 | 0.00 | 0.00 | 0.00 | 81 | 1012.5 |
| 20260505170123 | 74 | 187 | 1.7 | 4.3 | 0.00 | 0.00 | 0.00 | 81 | 1012.5 |
| 20260505165124 | 74 | 194 | 3.5 | 6.1 | 0.00 | 0.00 | 0.00 | 81 | 1012.4 |
| 20260505163240 | 73 | 207 | 3.5 | 7.0 | 0.00 | 0.00 | 0.00 | 81 | 1012.4 |
| 20260505162322 | 73 | 194 | 2.6 | 4.3 | 0.00 | 0.00 | 0.00 | 82 | 1012.4 |
| 20260505161325 | 72 | 194 | 2.6 | 5.2 | 0.00 | 0.00 | 0.00 | 82 | 1012.5 |
| 20260505160325 | 72 | 196 | 3.5 | 6.1 | 0.00 | 0.00 | 0.00 | 83 | 1012.5 |
| 20260505152424 | 71 | 174 | 2.6 | 6.1 | 0.00 | 0.00 | 0.00 | 84 | 1012.5 |
| 20260505150523 | 70 | 198 | 2.6 | 5.2 | 0.00 | 0.00 | 0.00 | 84 | 1012.4 |